TIME,DELAY(SENSOR),PRES,OXYGEN,RAWTEMP,T(OPTODE),TCPHASE,FLUOR,BETA(BETA700),BETA(BETA412),BETA(BETA440),CDOM,C(CSC),ED(ED411.90),ED(ED443.80),ED(ED489.40),ED(ED554.70),LU(LU412.20),LU(LU443.80),LU(LU489.40),LU(LU555.00),COMP,TILTX,TILTY,CHECK
1345931286,5803,898.5599975585938000,167.4895935058593800,401.9060974121094000,10.9224195480346680,39.0023002624511700,51,109,100,82,72,15481,2147460608,2147785654,2147573750,2147817389,2147312768,2147457801,2147741037,2148265472,815,6,13,17260
1345934882,5805,1115.0000000000000000,183.6867980957031200,488.5362854003906000,8.2385444641113280,39.3149604797363300,52,106,101,83,74,15477,2147441764,2147795218,2147579584,2147833115,2147302016,2147450102,2147758125,2148277037,2994,6,14,58050
1345938482,5806,1044.0000000000000000,193.4201049804687500,501.4981994628906000,7.8332238197326660,38.9037208557128900,51,106,101,82,74,15465,2147442569,2147792402,2147580489,2147833728,2147302217,2147446912,2147761929,2148276068,11,6,14,63826
1345942082,5804,13.3999996185302730,195.4855041503906200,504.1976013183594000,7.7486739158630370,38.8201217651367200,51,104,102,81,74,15469,2147434742,2147796461,2147583945,2147833554,2147306395,2147449353,2147756854,2148276086,3399,6,14,16430
1345945682,5803,10.3000001907348630,195.5167999267578000,505.2916870117187500,7.7143912315368650,38.8379287719726560,51,105,102,81,75,15374,2147436809,2147792210,2147584027,2147829732,2147307291,2147449618,2147758948,2148277824,37,6,14,180
1345949282,5805,13.3000001907348630,194.3271942138672000,502.7453918457031000,7.7941679954528810,38.8678398132324200,51,104,105,82,75,15438,2147437394,2147795529,2147581952,2147830464,2147305234,2147449508,2147762340,2148275410,3004,6,14,36596
1345952882,5804,1341.0000000000000000,194.6864929199218800,504.0285949707031000,7.7539691925048830,38.8675498962402340,50,105,101,81,75,15433,2147439917,2147797430,2147581019,2147833554,2147306066,2147449380,2147764013,2148274075,3236,6,14,34998
1345956482,5803,1052.0000000000000000,195.2989959716797000,504.5285949707031000,7.7383031845092770,38.8379707336425800,51,109,100,81,76,15433,2147435273,2147792768,2147582857,2147831469,2147306432,2147451785,2147763556,2148277019,3339,6,14,55909
1345960082,5804,10.3000001907348630,189.2832031250000000,493.3912048339844000,8.0868597030639650,39.0289688110351560,52,105,101,84,75,15461,2147436571,2147793828,2147580653,2147830089,2147305892,2147448457,2147757668,2148276598,695,6,14,60367
1345963682,5808,12.1000003814697270,187.5269927978515600,492.7192993164062500,8.1078605651855470,39.1321983337402340,51,108,102,82,74,15447,2147435913,2147796022,2147582381,2147828955,2147307556,2147453659,2147754441,2148273920,18,6,14,34359
1345967282,5802,1232.0000000000000000,187.7716064453125000,494.3374938964844000,8.0572786331176760,39.1445388793945300,51,109,102,82,74,15454,2147440996,2147795492,2147581732,2147828333,2147306706,2147456530,2147754258,2148277211,563,6,14,32217
1345970882,5805,12.0000000000000000,186.8975067138672000,493.9931030273437500,8.0680427551269530,39.1955909729003900,50,105,101,83,76,15455,2147440832,2147793984,2147581997,2147831780,2147301184,2147453110,2147759872,2148277568,942,6,14,12274
1345974482,5804,1264.0000000000000000,187.8979034423828000,494.4122924804687500,8.0549392700195310,39.1375389099121100,50,105,101,82,75,15454,2147438189,2147795300,2147581412,2147829065,2147305828,2147452717,2147754761,2148273216,1101,6,14,44454
1345978082,5803,12.5000000000000000,188.8917999267578000,494.9750976562500000,8.0373401641845700,39.0827598571777340,50,111,102,82,74,15454,2147442139,2147791186,2147580580,2147830445,2147303131,2147451922,2147759442,2148273298,2998,6,14,30844
1345981682,5803,12.1999998092651370,189.3190002441406200,494.7463073730469000,8.0444965362548830,39.0506896972656250,51,106,101,82,74,15452,2147439826,2147796507,2147580096,2147826944,2147307657,2147452992,2147763309,2148277174,3188,6,14,63879
1345985282,5805,10.1000003814697270,187.7198028564453000,496.1146850585937500,8.0017042160034180,39.1789588928222660,50,105,101,86,75,15376,2147441152,2147798765,2147583232,2147829641,2147302262,2147451300,2147760566,2148275529,3222,6,14,56052
1345988882,5805,1249.0000000000000000,188.4178009033203000,496.2643127441406000,7.9970240592956540,39.1361808776855500,52,104,101,81,76,15358,2147437357,2147794870,2147581312,2147828827,2147305837,2147450422,2147759350,2148273344,54,6,14,60502
1345992482,5806,10.1000003814697270,189.5357055664062500,497.6694946289062500,7.9530658721923830,39.0872383117675800,51,106,102,83,76,15356,2147433188,2147797366,2147584201,2147831826,2147304822,2147452434,2147760164,2148277001,270,6,14,54387
1345996082,5806,10.6000003814697270,188.5502014160156200,497.0488891601562500,7.9724807739257810,39.1401405334472660,52,112,103,83,74,15350,2147440758,2147793417,2147584649,2147827949,2147305270,2147451730,2147757787,2148278747,188,6,14,44813
1345999682,5802,1069.0000000000000000,187.2512969970703000,497.3905029296875000,7.9617938995361330,39.2315597534179700,51,105,101,83,76,15352,2147436946,2147792402,2147581440,2147829129,2147305115,2147451428,2147755492,2148276086,3273,6,14,62284
1346003282,5807,10.5000000000000000,188.3370056152343800,496.3211975097656000,7.9952421188354490,39.1416511535644500,51,106,101,82,75,15352,2147437476,2147795684,2147579712,2147827648,2147305060,2147451794,2147761188,2148276260,232,6,14,28059
1346006882,5802,1302.0000000000000000,189.0471038818359400,496.3947143554687500,7.9929451942443850,39.0966491699218750,51,105,101,83,75,15349,2147436516,2147794267,2147580589,2147827757,2147303926,2147453193,2147756150,2148279195,236,6,13,1608
1346010482,5802,1032.0000000000000000,187.2382965087890600,494.7921142578125000,8.0430631637573240,39.1866798400878900,51,105,101,82,75,15348,2147440411,2147798016,2147583250,2147826560,2147308278,2147454592,2147759405,2148277275,2821,6,14,30554
1346014082,5806,12.8999996185302730,186.8686065673828000,495.9137878417969000,8.0079870223999020,39.2306289672851560,50,106,99,82,75,15346,2147436397,2147794368,2147583561,2147827940,2147308251,2147450331,2147757202,2148274962,3262,6,14,11267
1346017682,5808,13.5000000000000000,188.3972930908203000,496.3367919921875000,7.9947571754455570,39.1375885009765600,52,108,101,81,75,15346,2147437860,2147795812,2147579794,2147830244,2147306916,2147451382,2147756772,2148278793,5,6,14,38369
1346021282,5803,12.5000000000000000,188.8925018310547000,496.4419860839844000,7.9914660453796390,39.1073303222656250,50,106,100,82,75,15438,2147438857,2147799771,2147583168,2147830162,2147306560,2147453906,2147758528,2148276050,3573,6,14,20983
1346024882,5802,13.0000000000000000,189.1208038330078000,496.2648010253906000,7.9970078468322750,39.0900382995605500,51,106,102,82,75,15438,2147439789,2147792429,2147584502,2147828745,2147306176,2147450843,2147757165,2148277001,238,6,14,4769
1346028482,5802,13.3000001907348630,189.0881042480468800,496.1719055175781000,7.9999117851257320,39.0896110534668000,52,105,100,82,74,15437,2147440905,2147794285,2147583890,2147826907,2147304082,2147458230,2147760036,2148281014,190,6,14,50861
1346032082,5806,13.1999998092651370,187.3450012207031200,495.6406860351562500,8.0165281295776370,39.1953582763671900,51,106,101,82,75,15436,2147444388,2147795812,2147581202,2147827812,2147306130,2147451318,2147758144,2148277632,264,6,14,2068
1346035682,5803,12.5000000000000000,184.1900024414062500,488.0357971191406000,8.2541723251342770,39.2724800109863300,50,104,102,82,75,15418,2147441755,2147793225,2147581357,2147828224,2147303680,2147455378,2147757504,2148276233,3491,6,14,8404
1346039282,5806,10.3999996185302730,182.3348999023437500,485.6029052734375000,8.3301191329956050,39.3553886413574200,51,105,100,82,75,15431,2147439542,2147794093,2147582162,2147825545,2147306230,2147449508,2147758189,2148276672,3518,6,14,57113
1346042882,5804,11.8999996185302730,182.6965026855468800,487.0281982421875000,8.2856321334838870,39.3559608459472660,50,106,104,82,74,15426,2147441737,2147793078,2147583515,2147825472,2147308022,2147453120,2147754395,2148273737,68,6,14,3575
1346046482,5804,11.5000000000000000,182.6950988769531200,487.0903930664062500,8.2836885452270500,39.3560981750488300,50,108,101,81,75,15421,2147439634,2147792484,2147582674,2147827904,2147306368,2147458322,2147754715,2148278921,110,6,14,55889
1346050082,5799,11.6999998092651370,181.3065032958984400,487.5815124511719000,8.2683563232421880,39.4592208862304700,51,127,109,82,75,15423,2147439945,2147794212,2147580224,2147829129,2147306221,2147450797,2147754962,2148274157,3470,6,14,4428
1346053682,5803,1212.0000000000000000,181.3099060058593800,486.7225952148437500,8.2951707839965820,39.4440612792968750,51,105,102,82,75,15421,2147440530,2147796370,2147584100,2147833508,2147303817,2147453650,2147761499,2148276251,3300,6,14,24134
1346057282,5801,1008.0000000000000000,180.8282012939453000,487.2221984863281000,8.2795753479003900,39.4846191406250000,51,104,100,82,75,15409,2147441307,2147790665,2147582720,2147829467,2147304493,2147449782,2147757266,2148275264,3521,6,14,29252
1346060882,5805,17.0000000000000000,181.9416046142578000,487.0852050781250000,8.2838506698608400,39.4073905944824200,50,109,102,83,74,15416,2147437714,2147790912,2147582784,2147827849,2147305993,2147451913,2147753133,2148273389,96,6,14,12110
1346064482,5805,1193.0000000000000000,181.1779022216797000,488.5846862792969000,8.2370309829711910,39.4848594665527340,51,109,103,81,75,15413,2147440768,2147793179,2147582171,2147830016,2147308160,2147455945,2147760832,2148276288,276,6,14,27083
1346068082,5804,10.6000003814697270,183.0646057128906200,488.7351074218750000,8.2323360443115230,39.3598289489746100,52,110,101,83,74,15411,2147439314,2147792448,2147579849,2147827693,2147305718,2147454016,2147754605,2148276662,405,6,14,46118
1346071682,5804,12.1000003814697270,182.7608032226562500,488.4002075195312500,8.2427930831909180,39.3747406005859400,51,107,101,82,76,15409,2147437220,2147792457,2147583808,2147827072,2147308160,2147454784,2147760301,2148277558,498,6,13,64348
1346074255,5804,12.3000001907348630,181.8314971923828000,487.2567138671875000,8.2784967422485350,39.4180297851562500,51,114,102,83,75,15408,2147442349,2147793389,2147580681,2147828333,2147305380,2147455817,2147753892,2148274715,520,6,14,37095
